[[{"header":{"parameterUnit":"m.s-1","parameterCategory":1,"la1":30.2991,"la2":30.254,"lo1":-89.0895,"lo2":-89.0444,"dy":0.0017,"dx":0.0017,"nx":28,"ny":28,"refTime":"2025-03-08T03:00:00:Z","depth":0,"parameterNumber":2,"parameterNumberName":"U-component_of_WINDS"},"data":[0,0,0,0,0,0,0,0,0,0,0,0,0,0,0,0,0,0,0,0,0,0,0,0,0,0,0,0,0,0,0,0,0,0,0,0,0,0,0,0,0,0,0,0,0,0,0,0,0,0,0,0,0,0,0,0,0,0,-3.5078,-3.5078,0,-3.5087,-3.5087,-3.5087,-3.4991,-3.4988,-3.4985,-3.4983,-3.4994,-3.4997,-3.5,0,0,0,0,0,0,0,0,0,0,0,0,0,-3.4981,-3.4983,-3.5078,-3.5078,-3.5078,-3.5087,-3.5087,-3.5087,-3.4991,-3.4988,-3.4985,-3.4982,-3.4994,-3.4997,-3.5,0,0,0,0,0,0,0,0,0,0,0,0,0,-3.501,-3.4984,-3.5078,-3.5031,-3.5027,-3.5087,-3.5087,-3.5087,-3.4992,-3.4988,-3.4984,-3.498,-3.4992,-3.4996,-3.5001,-3.5107,0,0,-3.5013,-3.5015,0,0,0,0,0,0,0,0,-3.5008,-3.5014,-3.5038,-3.5035,-3.503,-3.5034,-3.5057,-3.5094,-3.4993,-3.5005,-3.4983,-3.4978,-3.5011,-3.5013,-3.5024,-3.5107,-3.5108,-3.5014,-3.5016,-3.5018,-3.5019,0,0,0,0,0,0,0,-3.5007,-3.5013,-3.5082,-3.5038,-3.5034,-3.5011,-3.5011,-3.5064,-3.5031,-3.5004,-3.4997,-3.4999,-3.5008,-3.502,-3.5023,-3.5108,-3.5014,-3.5017,-3.502,-3.5022,-3.5281,-3.5285,0,0,0,0,0,0,-3.501,-3.5012,-3.5081,-3.5082,-3.5009,-3.5016,-3.5016,-3.5037,-3.503,-3.5025,-3.5003,-3.4995,-3.5015,-3.5019,-3.5023,-3.5148,-3.5018,-3.5022,-3.5024,-3.5277,-3.5282,-3.5287,0,0,0,0,0,0,-3.5009,-3.5018,-3.5081,-3.5045,-3.5051,-3.5022,-3.5046,-3.5039,-3.5051,-3.5029,-3.5023,-3.5021,-3.5012,-3.5018,-3.5087,-3.5147,-3.5024,-3.5028,-3.5272,-3.5278,-3.5284,-3.5398,0,0,0,0,0,0,-3.5006,-3.5017,-3.5056,-3.5047,-3.5054,-3.5143,-3.505,-3.5042,-3.5058,-3.5048,-3.5044,-3.504,-3.5009,-3.5081,-3.5091,-3.5151,-3.5031,-3.5266,-3.5275,-3.5282,-3.5388,-3.5407,-3.5423,0,0,0,0,0,-3.5003,-3.5088,-3.5059,-3.5068,-3.5101,-3.5147,-3.5151,-3.5114,-3.5063,-3.5103,-3.5089,-3.504,-3.5139,-3.5089,-3.51,-3.5161,-3.5262,-3.5272,-3.5282,-3.538,-3.5404,-3.5423,0,0,0,0,0,0,-3.5105,-3.5085,-3.5053,-3.5136,-3.5144,-3.513,-3.5179,-3.5139,-3.5161,-3.5151,-3.5104,-3.5104,-3.5182,-3.5179,-3.5123,-3.5265,-3.5192,-3.5204,-3.5264,-3.5285,-3.5303,-3.5301,-3.5034,0,0,0,0,0,-3.5137,-3.5175,-3.5156,-3.5232,-3.5237,-3.5208,-3.5226,-3.5197,-3.5204,-3.5206,-3.5197,-3.5206,-3.524,-3.5262,-3.5292,-3.5388,-3.5387,-3.5436,-3.5453,-3.5468,-3.5479,-3.5532,-3.5554,-3.5319,-3.5319,-3.5319,0,0,-3.5204,-3.5198,-3.5224,-3.5252,-3.5254,-3.5296,-3.5211,-3.5258,-3.5289,-3.5214,-3.5278,-3.5273,-3.528,-3.5364,-3.54,-3.5363,-3.5544,-3.5481,-3.5492,-3.5495,-3.5544,-3.5566,-3.5586,-3.5326,-3.5325,-3.5323,0,0,-3.5346,-3.5345,-3.5409,-3.5414,-3.5419,-3.5399,-3.5415,-3.5408,-3.5402,-3.5466,-3.5411,-3.5448,-3.5506,-3.5514,-3.5525,-3.5676,-3.5632,-3.5687,-3.5778,-3.583,-3.5848,-3.5864,-3.5919,-3.5938,-3.5698,-3.5698,-3.5698,0,-3.5428,-3.5487,-3.5446,-3.5498,-3.5513,-3.5447,-3.5513,-3.552,-3.5535,-3.5547,-3.5506,-3.5579,-3.5579,-3.5664,-3.5701,-3.5713,-3.573,-3.5686,-3.5849,-3.5864,-3.5879,-3.593,-3.5951,-3.5705,-3.5704,-3.5703,-3.5703,0,-3.5589,-3.5631,-3.5682,-3.5699,-3.5719,-3.5778,-3.5747,-3.5774,-3.5744,-3.573,-3.5798,-3.5796,-3.5825,-3.5844,-3.5815,-3.5926,-3.5903,-3.5856,-3.5782,-3.5909,-3.5956,-3.5975,-3.5714,-3.5712,-3.571,-3.5708,0,0,-3.5792,-3.5788,-3.5807,-3.5815,-3.5817,-3.585,-3.5907,-3.5935,-3.5959,-3.5973,-3.602,-3.6073,-3.603,-3.6043,-3.6015,-3.6061,-3.6182,-3.6008,-3.6008,-3.6041,-3.6306,-3.6341,-3.6364,-3.6153,-3.6157,-3.616,-3.6306,0,-3.5931,-3.6026,-3.5993,-3.609,-3.613,-3.6071,-3.6121,-3.6129,-3.6118,-3.6151,-3.614,-3.6178,-3.6118,-3.6126,-3.6169,-3.6158,-3.6234,-3.6147,-3.6197,-3.62,-3.6197,-3.6389,-3.6425,-3.6563,-3.6324,-3.6327,-3.6329,0,-3.6104,-3.6126,-3.6228,-3.6226,-3.6242,-3.6287,-3.6311,-3.6344,-3.6353,-3.6342,-3.6359,-3.6323,-3.638,-3.6307,-3.6386,-3.6328,-3.6347,-3.6346,-3.635,-3.6353,-3.6271,-3.6397,-3.6606,-3.6627,-3.6358,-3.6356,-3.6353,0,-3.6243,-3.6297,-3.6366,-3.6374,-3.6374,-3.6408,-3.6409,-3.6415,-3.6435,-3.6457,-3.647,-3.6499,-3.6515,-3.6539,-3.6512,-3.6462,-3.6596,-3.6521,-3.659,-3.6591,-3.6619,-3.6618,-3.6834,-3.6633,-3.6633,-3.6633,-3.6632,0,-3.6401,-3.6465,-3.6428,-3.647,-3.6542,-3.6505,-3.6577,-3.6573,-3.6579,-3.662,-3.6571,-3.6611,-3.6573,-3.6611,-3.6591,-3.666,-3.6668,-3.6661,-3.6655,-3.6665,-3.6666,-3.6676,-3.6666,-3.6638,-3.6637,-3.6636,-3.6635,0,-3.6566,-3.6544,-3.6615,-3.661,-3.6611,-3.6664,-3.666,-3.67,-3.6687,-3.674,-3.6751,-3.6731,-3.6772,-3.6748,-3.6791,-3.6777,-3.6868,-3.6849,-3.6865,-3.6859,-3.693,-3.6924,-3.716,-3.719,-3.697,-3.6972,-3.6974,0,-3.6668,-3.6716,-3.6718,-3.6742,-3.6747,-3.6787,-3.6807,-3.6774,-3.6798,-3.6815,-3.6853,-3.6891,-3.6919,-3.6989,-3.6978,-3.7012,-3.6993,-3.7074,-3.6997,-3.7007,-3.6994,-3.6991,-3.6997,-3.7088,-3.7091,-3.7093,-3.7095,0,-3.6851,-3.6838,-3.687,-3.6899,-3.6925,-3.6947,-3.6964,-3.6987,-3.6954,-3.6984,-3.7026,-3.7048,-3.7093,-3.7132,-3.7161,-3.7163,-3.7125,-3.7119,-3.7137,-3.7148,-3.7155,-3.7152,-3.6906,-3.7114,-3.7112,-3.711,-3.7109,-3.7109,-3.6987,-3.7029,-3.7037,-3.7074,-3.7085,-3.7103,-3.714,-3.7133,-3.7168,-3.7201,-3.718,-3.7231,-3.7242,-3.7277,-3.7286,-3.7325,-3.7293,-3.7318,-3.7325,-3.7331,-3.7341,-3.715,-3.7331,-3.733,-3.7329,-3.7329,-3.7329,0,-3.7168,-3.7171,-3.7206,-3.7233,-3.7263,-3.7225,-3.7243,-3.7271,-3.7316,-3.733,-3.7359,-3.741,-3.7448,-3.7442,-3.7477,-3.751,-3.7494,-3.7521,-3.7518,-3.7519,-3.7368,-3.7349,-3.7534,-3.7534,-3.7534,-3.7534,-3.7534,-3.7534,-3.7265,-3.7333,-3.7323,-3.7397,-3.74,-3.7449,-3.7463,-3.748,-3.7491,-3.7549,-3.7581,-3.7577,-3.7584,-3.762,-3.7654,-3.7651,-3.7667,-3.77,-3.7692,-3.755,-3.753,-3.751,-3.7492,-3.7704,-3.7704,-3.7839,-3.7841,-3.7842]},{"header":{"parameterUnit":"m.s-1","parameterCategory":1,"la1":30.2991,"la2":30.254,"lo1":-89.0895,"lo2":-89.0444,"dy":0.0017,"dx":0.0017,"nx":28,"ny":28,"refTime":"2025-03-08T03:00:00:Z","depth":0,"parameterNumber":3,"parameterNumberName":"V-component_of_WINDS"},"data":[0,0,0,0,0,0,0,0,0,0,0,0,0,0,0,0,0,0,0,0,0,0,0,0,0,0,0,0,0,0,0,0,0,0,0,0,0,0,0,0,0,0,0,0,0,0,0,0,0,0,0,0,0,0,0,0,0,0,0.318,0.318,0,0.3238,0.3238,0.3239,0.328,0.3281,0.3281,0.3281,0.3341,0.3342,0.3343,0,0,0,0,0,0,0,0,0,0,0,0,0,0.3107,0.3108,0.318,0.3181,0.3181,0.3238,0.3238,0.3239,0.328,0.3281,0.3281,0.3281,0.334,0.3342,0.3343,0,0,0,0,0,0,0,0,0,0,0,0,0,0.3149,0.3108,0.318,0.3208,0.3212,0.3237,0.3238,0.3239,0.328,0.3281,0.3281,0.3281,0.334,0.3341,0.3343,0.3345,0,0,0.3349,0.335,0,0,0,0,0,0,0,0,0.3146,0.3152,0.3204,0.3207,0.321,0.3252,0.3234,0.3275,0.328,0.3254,0.3281,0.3282,0.3311,0.3315,0.3325,0.3348,0.3351,0.3349,0.3351,0.3351,0.3352,0,0,0,0,0,0,0,0.3144,0.3149,0.3203,0.3204,0.3208,0.3219,0.3226,0.3242,0.3279,0.3256,0.3259,0.3266,0.3313,0.3323,0.3327,0.3351,0.3349,0.3351,0.3352,0.3353,0.3382,0.3381,0,0,0,0,0,0,0.3136,0.3147,0.3201,0.3204,0.3179,0.322,0.3227,0.3238,0.3279,0.3286,0.3265,0.3267,0.3319,0.3324,0.3329,0.3335,0.3351,0.3353,0.3354,0.3382,0.3382,0.3381,0,0,0,0,0,0,0.3134,0.314,0.3199,0.3176,0.3185,0.3221,0.3233,0.3239,0.3249,0.3286,0.3292,0.3269,0.332,0.3326,0.3341,0.3338,0.3354,0.3356,0.3382,0.3382,0.3381,0.3346,0,0,0,0,0,0,0.3132,0.3139,0.314,0.3176,0.3186,0.3209,0.3232,0.324,0.3252,0.3256,0.3291,0.3297,0.3321,0.3338,0.3343,0.3341,0.3357,0.3383,0.3382,0.3381,0.3348,0.3345,0.3342,0,0,0,0,0,0.3129,0.3127,0.314,0.3146,0.3187,0.3209,0.3215,0.3242,0.3252,0.3253,0.3277,0.3296,0.3337,0.3339,0.3345,0.3343,0.3383,0.3382,0.3382,0.3349,0.3345,0.3342,0,0,0,0,0,0,0.3089,0.3132,0.3147,0.3156,0.3179,0.3216,0.3218,0.3236,0.3256,0.3259,0.3292,0.33,0.3312,0.3329,0.3331,0.3348,0.3363,0.3363,0.3336,0.3333,0.333,0.3325,0.3359,0,0,0,0,0,0.3081,0.3095,0.3133,0.3138,0.3148,0.3181,0.3192,0.3211,0.3236,0.3245,0.327,0.3294,0.3312,0.3324,0.3342,0.3351,0.336,0.3353,0.335,0.3347,0.3347,0.3355,0.3352,0.3378,0.3378,0.3378,0,0,0.3065,0.3091,0.3098,0.313,0.315,0.3165,0.3189,0.3203,0.3214,0.3248,0.3264,0.3283,0.3311,0.3324,0.3331,0.3339,0.3342,0.3346,0.3343,0.3345,0.3353,0.3351,0.3349,0.3378,0.3378,0.3378,0,0,0.3044,0.3064,0.3071,0.3091,0.3121,0.3143,0.3145,0.318,0.3194,0.3211,0.3237,0.3252,0.3282,0.3302,0.3316,0.3305,0.3324,0.3311,0.3294,0.3302,0.3299,0.3298,0.3295,0.3293,0.331,0.331,0.331,0,0.302,0.3043,0.3073,0.3086,0.31,0.3132,0.314,0.3158,0.3192,0.3202,0.3211,0.3252,0.3273,0.3291,0.3289,0.3299,0.3303,0.3306,0.3297,0.3296,0.3295,0.3293,0.3291,0.3309,0.3309,0.3309,0.3309,0,0.3013,0.3029,0.3031,0.3064,0.3079,0.3089,0.3122,0.3133,0.3152,0.3174,0.3192,0.3219,0.3245,0.3251,0.3269,0.3272,0.3277,0.3291,0.3306,0.329,0.3289,0.3288,0.3306,0.3307,0.3307,0.3308,0,0,0.2966,0.3018,0.3018,0.3034,0.3071,0.3084,0.3096,0.3122,0.3132,0.3155,0.3168,0.3194,0.3208,0.3224,0.3245,0.3251,0.3243,0.3265,0.3267,0.3261,0.325,0.3239,0.3238,0.3256,0.3256,0.3256,0.3248,0,0.2951,0.2975,0.3004,0.3019,0.3034,0.3066,0.3078,0.3102,0.3123,0.314,0.3164,0.3182,0.3199,0.3209,0.3217,0.3242,0.3241,0.3243,0.3268,0.3269,0.326,0.3237,0.3225,0.3216,0.3248,0.3248,0.3247,0,0.2936,0.2958,0.2975,0.3012,0.3019,0.3029,0.3056,0.3072,0.31,0.3116,0.3135,0.3158,0.3174,0.3188,0.3212,0.3212,0.3225,0.3239,0.3239,0.3243,0.3257,0.324,0.3214,0.3213,0.3247,0.3247,0.3247,0,0.2901,0.2935,0.295,0.2963,0.3006,0.3013,0.3031,0.3061,0.3075,0.3099,0.3109,0.3134,0.3148,0.3168,0.3198,0.3205,0.3219,0.3235,0.3233,0.3232,0.3234,0.3233,0.321,0.3241,0.3241,0.3241,0.3241,0,0.2881,0.289,0.2936,0.2945,0.2956,0.299,0.3001,0.3022,0.3049,0.3063,0.3093,0.3106,0.3144,0.3162,0.3186,0.3203,0.3209,0.3222,0.3229,0.322,0.3218,0.3228,0.323,0.3241,0.3241,0.3241,0.3241,0,0.2843,0.2874,0.2893,0.2933,0.2944,0.2951,0.2985,0.2996,0.302,0.3038,0.3045,0.3082,0.3105,0.3137,0.317,0.3186,0.32,0.321,0.319,0.3194,0.3191,0.3191,0.3173,0.3173,0.3204,0.3203,0.3203,0,0.2828,0.2836,0.2878,0.289,0.2908,0.2927,0.2942,0.2976,0.2991,0.3026,0.3032,0.3058,0.308,0.3116,0.3147,0.3173,0.3183,0.3175,0.3187,0.3179,0.3184,0.3183,0.3185,0.3172,0.3172,0.3171,0.3171,0,0.2799,0.2815,0.2835,0.2862,0.288,0.2902,0.2926,0.2935,0.2974,0.299,0.3014,0.3031,0.3066,0.3091,0.3122,0.3142,0.3163,0.3167,0.3168,0.316,0.3148,0.3155,0.3183,0.3167,0.3168,0.3168,0.3168,0.3168,0.2773,0.2783,0.2814,0.2837,0.2859,0.2881,0.2894,0.292,0.294,0.2971,0.299,0.3014,0.3045,0.3088,0.3108,0.3128,0.3136,0.3137,0.3138,0.3138,0.3135,0.3145,0.3133,0.3133,0.3133,0.3133,0.3134,0,0.2746,0.2768,0.2789,0.2822,0.2841,0.286,0.2888,0.2903,0.2923,0.295,0.2972,0.3001,0.3027,0.306,0.3088,0.3098,0.3109,0.3104,0.3104,0.3108,0.3125,0.3122,0.3095,0.3095,0.3095,0.3095,0.3095,0.3095,0.2734,0.2752,0.2771,0.28,0.2823,0.2846,0.2861,0.2883,0.2905,0.2936,0.2957,0.2979,0.3009,0.304,0.3065,0.3074,0.3084,0.3076,0.3088,0.3104,0.3107,0.311,0.3107,0.3078,0.3078,0.307,0.307,0.307]}]]